Location: Unspecified
(52.1971°N, 0.0000°E)
Time: 18:35:35
(UTC+00:00)

YUBILEINY - Pass Details

Date: 20 December 2019
Orbit: 1478 x 1509 km, 82.5° (Epoch: 26 January)

Event Time Altitude Azimuth Distance (km) Brightness Sun altitude
Rises 05:07:10 0° 347° (NNW) 4,613 ? -25.9°
Reaches altitude 10° 05:10:50 10° 0° (N) 3,630 ? -25.3°
Maximum altitude 05:17:43 25° 53° (NE) 2,647 ? -24.3°
Drops below altitude 10° 05:24:33 10° 105° (ESE) 3,626 ? -23.2°
Sets 05:28:11 0° 119° (ESE) 4,607 ? -22.7°
